[[{"header":{"parameterUnit":"m.s-1","parameterCategory":1,"la1":30.2991,"la2":30.254,"lo1":-89.0895,"lo2":-89.0444,"dy":0.0017,"dx":0.0017,"nx":28,"ny":28,"refTime":"2024-04-04T21:00:00:Z","depth":0,"parameterNumber":2,"parameterNumberName":"U-component_of_WINDS"},"data":[0,0,0,0,0,0,0,0,0,0,0,0,0,0,0,0,0,0,0,0,0,0,0,0,0,0,0,0,0,0,0,0,0,0,0,0,0,0,0,0,0,0,0,0,0,0,0,0,0,0,0,0,0,0,0,0,0,0,1.3862,1.3862,0,1.3802,1.3801,1.3801,1.3694,1.3692,1.369,1.3688,1.3627,1.3627,1.3627,0,0,0,0,0,0,0,0,0,0,0,0,0,1.3887,1.3887,1.3862,1.3861,1.3861,1.3802,1.3801,1.38,1.3694,1.3691,1.3689,1.3687,1.3627,1.3627,1.3627,0,0,0,0,0,0,0,0,0,0,0,0,0,1.3857,1.3887,1.3862,1.3801,1.3794,1.3802,1.3801,1.38,1.3694,1.3691,1.3688,1.3686,1.3627,1.3627,1.3627,1.3691,0,0,1.3629,1.3629,0,0,0,0,0,0,0,0,1.3859,1.3856,1.381,1.3805,1.3798,1.3752,1.3787,1.3764,1.3695,1.3732,1.3688,1.3684,1.3671,1.3668,1.3663,1.3688,1.3685,1.3629,1.3629,1.3629,1.3629,0,0,0,0,0,0,0,1.3861,1.3858,1.3838,1.381,1.3802,1.3776,1.3769,1.3782,1.372,1.3729,1.3721,1.3715,1.3667,1.3663,1.3661,1.3684,1.3629,1.3629,1.3629,1.3629,1.3761,1.3764,0,0,0,0,0,0,1.3872,1.386,1.384,1.3836,1.3821,1.3778,1.377,1.377,1.3719,1.3708,1.3718,1.3711,1.3664,1.366,1.3658,1.3731,1.3629,1.3629,1.363,1.3758,1.3762,1.3765,0,0,0,0,0,0,1.3873,1.3871,1.3843,1.3846,1.3841,1.3781,1.3782,1.377,1.3766,1.3711,1.3699,1.3725,1.3661,1.3658,1.3684,1.3728,1.363,1.363,1.3754,1.3759,1.3764,1.3877,0,0,0,0,0,0,1.3874,1.3872,1.3895,1.3848,1.3841,1.3869,1.3785,1.3771,1.3767,1.3757,1.3715,1.3705,1.3658,1.3684,1.3685,1.3726,1.363,1.375,1.3756,1.3762,1.3869,1.3885,1.3899,0,0,0,0,0,1.3875,1.3929,1.3897,1.3895,1.3868,1.3872,1.3868,1.3814,1.3771,1.3794,1.3759,1.3706,1.3722,1.3688,1.3687,1.373,1.3747,1.3755,1.3762,1.3863,1.3882,1.3899,0,0,0,0,0,0,1.3983,1.3922,1.3885,1.3925,1.3905,1.3854,1.3882,1.3836,1.3827,1.3818,1.3751,1.3743,1.3779,1.3756,1.3719,1.379,1.3727,1.3734,1.3803,1.3822,1.3836,1.3842,1.3631,0,0,0,0,0,1.4011,1.4019,1.3965,1.4006,1.3997,1.3942,1.3941,1.3901,1.3877,1.3868,1.3834,1.3814,1.3815,1.3816,1.3814,1.3865,1.3856,1.3894,1.3909,1.3922,1.393,1.3958,1.3975,1.379,1.3789,1.3789,0,0,1.407,1.4038,1.4047,1.4026,1.4006,1.4017,1.3935,1.3949,1.3956,1.387,1.3894,1.3869,1.3841,1.3881,1.3897,1.3864,1.3979,1.3931,1.3941,1.3942,1.3967,1.3985,1.4001,1.3795,1.3794,1.3793,0,0,1.4183,1.4159,1.4191,1.4172,1.4142,1.4105,1.4113,1.4069,1.405,1.4072,1.4008,1.4016,1.4018,1.4002,1.3994,1.4103,1.4055,1.4104,1.4183,1.4211,1.4225,1.4238,1.428,1.4295,1.4112,1.4112,1.4112,0,1.4261,1.4273,1.4213,1.4232,1.4226,1.4148,1.4181,1.4166,1.4137,1.4135,1.4098,1.4101,1.4076,1.4113,1.414,1.4135,1.4144,1.4109,1.4228,1.424,1.4251,1.429,1.4306,1.4118,1.4118,1.4117,1.4116,0,1.4371,1.4381,1.4411,1.4385,1.4382,1.4408,1.4353,1.4357,1.4318,1.4285,1.431,1.4278,1.4269,1.4274,1.4235,1.4306,1.4287,1.424,1.4175,1.4276,1.4312,1.4326,1.4127,1.4125,1.4123,1.4122,0,0,1.4551,1.4493,1.4505,1.4494,1.4455,1.4462,1.4485,1.4476,1.4482,1.4465,1.4484,1.4488,1.4445,1.4436,1.4395,1.4419,1.4511,1.4369,1.4368,1.4399,1.459,1.4628,1.4646,1.4478,1.4481,1.4483,1.4594,0,1.4658,1.4694,1.4641,1.4689,1.4699,1.4626,1.4646,1.4626,1.4596,1.4601,1.4567,1.4572,1.4514,1.4508,1.4529,1.4496,1.4549,1.4486,1.4497,1.4499,1.4509,1.4664,1.4703,1.4809,1.4607,1.4609,1.4611,0,1.4788,1.4778,1.4827,1.4788,1.479,1.4809,1.4798,1.4802,1.4778,1.4755,1.4746,1.4697,1.4718,1.4655,1.4684,1.4643,1.4644,1.4628,1.4631,1.4632,1.4563,1.4672,1.4841,1.4859,1.4631,1.463,1.4628,0,1.4918,1.4916,1.4946,1.4938,1.4892,1.4908,1.489,1.4862,1.4861,1.4851,1.485,1.4842,1.4839,1.4835,1.4787,1.4744,1.4823,1.4754,1.4806,1.4808,1.4828,1.4828,1.5003,1.4825,1.4825,1.4824,1.4824,0,1.5044,1.5078,1.5004,1.5023,1.506,1.4999,1.5037,1.5011,1.4987,1.5001,1.4936,1.4951,1.4884,1.4891,1.4853,1.4885,1.4883,1.4867,1.4857,1.4874,1.4877,1.4875,1.4868,1.4828,1.4828,1.4827,1.4826,0,1.5196,1.5148,1.5176,1.5131,1.512,1.5149,1.511,1.5127,1.5093,1.5111,1.5112,1.5059,1.5065,1.5015,1.5011,1.4985,1.5036,1.5012,1.5045,1.5038,1.5094,1.5091,1.5277,1.53,1.5105,1.5107,1.5108,0,1.5282,1.5306,1.5263,1.5268,1.5253,1.526,1.5259,1.52,1.5201,1.5177,1.5197,1.5197,1.5194,1.5207,1.5169,1.5167,1.5143,1.5209,1.5143,1.516,1.5148,1.5148,1.5152,1.5224,1.5226,1.5228,1.5229,0,1.5439,1.5414,1.5414,1.5407,1.5407,1.5398,1.5385,1.5393,1.5329,1.5334,1.5339,1.5337,1.5334,1.5336,1.5326,1.5308,1.526,1.525,1.5263,1.5282,1.5302,1.5295,1.5086,1.5247,1.5245,1.5244,1.5243,1.5242,1.5562,1.5581,1.5555,1.5558,1.5542,1.5532,1.5546,1.5514,1.5517,1.5509,1.5474,1.5487,1.5463,1.5445,1.5432,1.5441,1.541,1.5427,1.5432,1.5438,1.545,1.5298,1.5439,1.5438,1.5438,1.5437,1.5437,0,1.5718,1.5698,1.5701,1.5685,1.5689,1.5641,1.5625,1.5631,1.5642,1.5624,1.5623,1.5631,1.5633,1.5595,1.5593,1.5608,1.5586,1.561,1.561,1.5607,1.5476,1.5467,1.5628,1.5628,1.5628,1.5628,1.5628,1.5628,1.58,1.5831,1.5804,1.5827,1.5806,1.5818,1.5813,1.5804,1.5789,1.5801,1.5802,1.5777,1.5752,1.5748,1.5749,1.5737,1.5741,1.5773,1.5755,1.5634,1.5616,1.5598,1.559,1.5774,1.5774,1.5886,1.5887,1.5888]},{"header":{"parameterUnit":"m.s-1","parameterCategory":1,"la1":30.2991,"la2":30.254,"lo1":-89.0895,"lo2":-89.0444,"dy":0.0017,"dx":0.0017,"nx":28,"ny":28,"refTime":"2024-04-04T21:00:00:Z","depth":0,"parameterNumber":3,"parameterNumberName":"V-component_of_WINDS"},"data":[0,0,0,0,0,0,0,0,0,0,0,0,0,0,0,0,0,0,0,0,0,0,0,0,0,0,0,0,0,0,0,0,0,0,0,0,0,0,0,0,0,0,0,0,0,0,0,0,0,0,0,0,0,0,0,0,0,0,-3.2445,-3.2447,0,-3.2561,-3.2563,-3.2564,-3.2548,-3.2546,-3.2544,-3.2542,-3.2658,-3.2663,-3.2668,0,0,0,0,0,0,0,0,0,0,0,0,0,-3.2208,-3.2212,-3.2445,-3.2447,-3.2448,-3.2561,-3.2563,-3.2564,-3.2548,-3.2546,-3.2544,-3.2542,-3.2657,-3.2662,-3.2668,0,0,0,0,0,0,0,0,0,0,0,0,0,-3.2316,-3.2214,-3.2445,-3.2454,-3.2456,-3.2561,-3.2563,-3.2565,-3.2549,-3.2546,-3.2543,-3.254,-3.2655,-3.2662,-3.2669,-3.2771,0,0,-3.2691,-3.2694,0,0,0,0,0,0,0,0,-3.231,-3.2325,-3.2451,-3.2454,-3.2456,-3.2537,-3.2521,-3.2634,-3.255,-3.2514,-3.2542,-3.2539,-3.262,-3.263,-3.2658,-3.2777,-3.2782,-3.2692,-3.2696,-3.2699,-3.2702,0,0,0,0,0,0,0,-3.2303,-3.232,-3.2491,-3.2453,-3.2456,-3.2451,-3.2464,-3.2543,-3.2581,-3.2516,-3.2516,-3.253,-3.2621,-3.2651,-3.2661,-3.2783,-3.2692,-3.2698,-3.2703,-3.2706,-3.2992,-3.2995,0,0,0,0,0,0,-3.2293,-3.2314,-3.2487,-3.2495,-3.2375,-3.2458,-3.2472,-3.2514,-3.2581,-3.2588,-3.2532,-3.2528,-3.264,-3.2652,-3.2665,-3.2789,-3.2699,-3.2706,-3.271,-3.2989,-3.2993,-3.2996,0,0,0,0,0,0,-3.2288,-3.2309,-3.2483,-3.2404,-3.2426,-3.2465,-3.2513,-3.2518,-3.2548,-3.2592,-3.2599,-3.2556,-3.2638,-3.2654,-3.2745,-3.2793,-3.271,-3.2716,-3.2985,-3.299,-3.2995,-3.3038,0,0,0,0,0,0,-3.2281,-3.2307,-3.2347,-3.2405,-3.243,-3.2562,-3.2516,-3.2522,-3.2561,-3.2558,-3.2616,-3.2623,-3.2637,-3.2734,-3.2752,-3.2801,-3.2722,-3.2981,-3.2987,-3.2993,-3.3032,-3.3044,-3.3053,0,0,0,0,0,-3.2273,-3.2354,-3.2349,-3.237,-3.2481,-3.2565,-3.2579,-3.2594,-3.2565,-3.2605,-3.2633,-3.2622,-3.2785,-3.2744,-3.2764,-3.2816,-3.2978,-3.2986,-3.2993,-3.3028,-3.3042,-3.3053,0,0,0,0,0,0,-3.2299,-3.2362,-3.2357,-3.2459,-3.2507,-3.2562,-3.2613,-3.2608,-3.2665,-3.2659,-3.2674,-3.2688,-3.278,-3.2807,-3.276,-3.2918,-3.2877,-3.2889,-3.2897,-3.2911,-3.2921,-3.2912,-3.2728,0,0,0,0,0,-3.2317,-3.2381,-3.2432,-3.2517,-3.2541,-3.2573,-3.261,-3.2618,-3.2668,-3.2688,-3.2723,-3.2771,-3.2833,-3.2873,-3.2933,-3.3037,-3.3049,-3.3082,-3.3092,-3.3101,-3.311,-3.3167,-3.3182,-3.302,-3.302,-3.302,0,0,-3.2354,-3.2396,-3.2435,-3.2523,-3.2561,-3.2626,-3.259,-3.2661,-3.2709,-3.2698,-3.2786,-3.2814,-3.2868,-3.2966,-3.3011,-3.2991,-3.3158,-3.311,-3.3116,-3.3122,-3.3176,-3.3192,-3.3205,-3.3025,-3.3024,-3.3023,0,0,-3.2455,-3.2493,-3.2569,-3.2608,-3.2666,-3.2687,-3.2705,-3.2762,-3.278,-3.2869,-3.2862,-3.2919,-3.3026,-3.3065,-3.3099,-3.3216,-3.3207,-3.3235,-3.3289,-3.3344,-3.3357,-3.3368,-3.3409,-3.3424,-3.3244,-3.3244,-3.3245,0,-3.2493,-3.2592,-3.2608,-3.268,-3.2718,-3.2713,-3.2789,-3.2826,-3.29,-3.2927,-3.2904,-3.3038,-3.3075,-3.3181,-3.321,-3.3238,-3.3259,-3.3228,-3.3354,-3.3365,-3.3376,-3.3416,-3.3431,-3.3247,-3.3247,-3.3247,-3.3246,0,-3.2636,-3.2705,-3.2758,-3.2832,-3.2877,-3.295,-3.2976,-3.302,-3.3024,-3.3047,-3.3137,-3.3181,-3.3249,-3.3275,-3.3279,-3.3383,-3.3369,-3.335,-3.3309,-3.3394,-3.3432,-3.3447,-3.3252,-3.3251,-3.325,-3.3249,0,0,-3.2755,-3.2838,-3.2857,-3.289,-3.2955,-3.3008,-3.3081,-3.3149,-3.3185,-3.3237,-3.3298,-3.3389,-3.3372,-3.3411,-3.3419,-3.3468,-3.3557,-3.3443,-3.3445,-3.3462,-3.3674,-3.3687,-3.3704,-3.3552,-3.3555,-3.3558,-3.3669,0,-3.2862,-3.2992,-3.3009,-3.3124,-3.3188,-3.3184,-3.3247,-3.3293,-3.3317,-3.3374,-3.3399,-3.3463,-3.3437,-3.346,-3.3508,-3.3536,-3.36,-3.3529,-3.3608,-3.3611,-3.3594,-3.3724,-3.3738,-3.3841,-3.3684,-3.3686,-3.3688,0,-3.3004,-3.3061,-3.3182,-3.3239,-3.3266,-3.3323,-3.3387,-3.3441,-3.3493,-3.3507,-3.3551,-3.3553,-3.3628,-3.3585,-3.3688,-3.3639,-3.3673,-3.3692,-3.3696,-3.3703,-3.3654,-3.3734,-3.3875,-3.389,-3.3711,-3.3709,-3.3708,0,-3.3078,-3.3185,-3.3272,-3.33,-3.3368,-3.3408,-3.3438,-3.3488,-3.3528,-3.3583,-3.3609,-3.3672,-3.3707,-3.3755,-3.3775,-3.3742,-3.3877,-3.3835,-3.3889,-3.3889,-3.3917,-3.3915,-3.4064,-3.394,-3.394,-3.394,-3.3939,0,-3.3195,-3.3269,-3.3306,-3.3359,-3.3443,-3.3461,-3.3543,-3.3571,-3.3615,-3.3673,-3.3674,-3.3728,-3.3751,-3.3809,-3.3824,-3.3907,-3.3923,-3.3935,-3.3938,-3.3935,-3.3933,-3.3957,-3.395,-3.3944,-3.3943,-3.3942,-3.3941,0,-3.3291,-3.3319,-3.3413,-3.347,-3.3487,-3.3545,-3.3594,-3.3645,-3.3668,-3.3742,-3.376,-3.3797,-3.3865,-3.389,-3.3972,-3.3983,-3.4078,-3.4076,-3.4061,-3.4062,-3.4114,-3.4109,-3.4283,-3.4307,-3.4168,-3.4169,-3.417,0,-3.3364,-3.3421,-3.3485,-3.3524,-3.3556,-3.3619,-3.3661,-3.3681,-3.3724,-3.3788,-3.3831,-3.3899,-3.3955,-3.4064,-3.4097,-3.416,-3.4159,-3.4216,-3.4168,-3.4163,-3.4159,-3.4155,-3.4161,-3.4224,-3.4226,-3.4227,-3.4228,0,-3.3489,-3.35,-3.356,-3.3625,-3.3674,-3.3726,-3.3776,-3.3808,-3.3836,-3.3884,-3.3954,-3.3998,-3.4083,-3.415,-3.4215,-3.4245,-3.4241,-3.4243,-3.4259,-3.4255,-3.4244,-3.425,-3.4084,-3.4238,-3.4237,-3.4236,-3.4236,-3.4235,-3.3575,-3.3626,-3.3679,-3.3746,-3.3786,-3.3833,-3.3884,-3.3915,-3.3974,-3.4045,-3.4054,-3.4129,-3.418,-3.4267,-3.43,-3.4359,-3.4343,-3.4366,-3.4372,-3.4377,-3.4381,-3.4236,-3.4371,-3.4371,-3.437,-3.437,-3.437,0,-3.37,-3.3734,-3.3795,-3.3866,-3.3919,-3.3912,-3.3967,-3.4011,-3.4078,-3.4126,-3.4181,-3.4262,-3.4328,-3.4367,-3.4432,-3.4472,-3.4472,-3.4488,-3.4485,-3.4492,-3.4391,-3.4371,-3.4487,-3.4487,-3.4487,-3.4487,-3.4487,-3.4487,-3.3771,-3.3857,-3.3874,-3.398,-3.4013,-3.4088,-3.412,-3.4164,-3.4202,-3.4293,-3.4348,-3.4373,-3.4418,-3.4487,-3.4547,-3.4556,-3.458,-3.4598,-3.4606,-3.4511,-3.4499,-3.4488,-3.4468,-3.4604,-3.4604,-3.4702,-3.4703,-3.4704]}]]